FW0320 Weather Reports


time (UTC)temp
C
wind
direction
speed
KPH
gust
KPH
rain 1hr
cm
rain 24hr
cm
rain mn
cm
humidity
%
barometer
mb
20260507180049 17 327 3.2 9.7 0.00 0.38 0.03 38 1007.7
20260507174549 17 49 1.6 11.3 0.00 0.38 0.03 34 1007.4
20260507173044 17 281 3.2 12.9 0.00 0.64 0.03 32 1007.4
20260507171544 16 324 3.2 16.1 0.00 0.64 0.03 33 1007.5
20260507170043 16 320 3.2 12.9 0.00 0.64 0.03 35 1007.6
20260507164555 16 304 4.8 9.7 0.00 0.69 0.03 36 1007.8
20260507163037 16 44 4.8 16.1 0.00 0.69 0.03 38 1008.0
20260507161539 15 332 4.8 14.5 0.00 0.69 0.03 41 1008.1
20260507160032 15 73 3.2 8.0 0.00 0.69 0.03 45 1008.1
20260507154530 14 312 3.2 14.5 0.00 0.99 0.03 49 1008.4
20260507153027 13 65 3.2 9.7 0.00 0.99 0.03 57 1008.4
20260507151527 14 355 3.2 6.4 0.00 0.99 0.03 54 1008.5
20260507150027 13 126 1.6 4.8 0.00 0.99 0.03 58 1008.7
20260507144530 13 147 3.2 6.4 0.00 1.45 0.03 57 1008.9
20260507143031 14 17 1.6 6.4 0.00 1.45 0.03 58 1008.7
20260507141525 13 42 1.6 6.4 0.00 1.45 0.03 56 1008.8
20260507140029 14 338 1.6 8.0 0.00 1.45 0.03 58 1008.8
20260507134527 13 296 1.6 8.0 0.00 1.55 0.03 60 1008.6
20260507133018 12 242 3.2 4.8 0.00 1.55 0.03 63 1008.7
20260507131516 12 331 3.2 6.4 0.00 1.55 0.03 66 1009.0
20260507130011 11 311 3.2 8.0 0.00 1.55 0.03 69 1009.0
20260507124510 10 177 1.6 8.0 0.00 1.68 0.03 73 1009.1
20260507123009 10 315 1.6 6.4 0.00 1.68 0.03 78 1009.1
20260507121506 9 355 1.6 6.4 0.00 1.68 0.03 82 1009.3
20260507120007 9 206 0.0 4.8 0.00 1.68 0.03 82 1009.2
20260507114506 8 105 0.0 4.8 0.00 1.70 0.03 83 1009.1
20260507113007 8 282 0.0 0.0 0.00 1.70 0.03 85 1009.0
20260507111503 8 282 0.0 1.6 0.00 1.70 0.03 86 1008.9
20260507110002 8 282 1.6 3.2 0.00 1.70 0.03 85 1008.9
20260507104502 8 278 0.0 4.8 0.00 1.70 0.03 86 1008.8
20260507103100 8 176 0.0 0.0 0.00 1.70 0.03 88 1008.4
20260507101612 8 176 0.0 3.2 0.00 1.70 0.03 88 1008.5
20260507094604 8 351 0.0 0.0 0.00 1.70 0.03 89 1008.7
20260507093055 8 351 0.0 3.2 0.00 1.70 0.03 88 1008.7
20260507091553 8 130 0.0 1.6 0.03 1.70 0.03 90 1008.7
20260507090053 8 128 1.6 4.8 0.03 1.70 0.03 90 1008.8
20260507084557 9 129 0.0 1.6 0.03 1.70 0.03 90 1008.3
20260507083050 9 129 0.0 0.0 0.03 1.70 0.03 90 1008.3
20260507081548 9 129 0.0 0.0 0.00 1.68 0.00 89 1008.2
20260507074545 10 125 0.0 4.8 0.00 1.68 0.00 88 1008.2
20260507073048 10 59 0.0 0.0 0.00 1.68 0.00 88 1008.1
20260507071542 10 59 0.0 0.0 0.00 1.68 0.00 88 1007.8
20260507070042 10 24 0.0 0.0 0.00 1.68 0.00 89 1007.9
20260507064541 10 24 0.0 1.6 0.00 1.68 0.00 89 1007.6
20260507063040 10 24 0.0 3.2 0.00 1.75 0.00 90 1007.6
20260507061538 10 24 0.0 3.2 0.03 1.75 0.00 89 1007.6
20260507060036 10 323 0.0 3.2 0.03 1.75 0.00 90 1007.6
20260507054538 10 256 0.0 3.2 0.03 1.75 1.75 91 1008.0
20260507053034 10 161 0.0 3.2 0.03 1.75 1.75 91 1008.2
20260507051533 11 162 0.0 3.2 0.03 1.75 1.75 90 1008.2
20260507050034 11 163 1.6 3.2 0.03 1.73 1.73 90 1008.1
20260507044530 11 267 1.6 4.8 0.08 1.73 1.73 89 1007.8
20260507043028 12 331 0.0 3.2 0.08 1.73 1.73 90 1007.8
20260507041525 12 21 1.6 4.8 0.08 1.73 1.73 91 1007.9
20260507040024 12 9 0.0 4.8 0.08 1.70 1.70 90 1007.9
20260507034522 13 304 1.6 6.4 0.03 1.65 1.65 90 1007.3
20260507033023 13 9 1.6 3.2 0.03 1.65 1.65 91 1006.9
20260507031517 14 348 1.6 8.0 0.03 1.65 1.65 90 1006.8
20260507030019 15 46 1.6 8.0 0.00 1.63 1.63 93 1006.7
20260507024516 15 28 1.6 4.8 0.00 1.63 1.63 93 1006.6
20260507023015 15 144 0.0 3.2 0.00 1.63 1.63 92 1006.6
20260507021514 14 144 0.0 3.2 0.00 1.63 1.63 92 1006.3
20260507020014 14 267 0.0 6.4 0.00 1.63 1.63 92 1006.4
20260507014521 14 9 1.6 6.4 0.00 1.63 1.63 92 1006.4
20260507013032 14 263 0.0 6.4 0.00 1.63 1.63 92 1006.5
20260507011514 14 176 0.0 4.8 0.00 1.63 1.63 92 1006.5
20260507010023 15 329 0.0 4.8 0.00 1.63 1.63 92 1006.6
20260507004512 15 360 1.6 6.4 0.00 2.08 1.63 92 1006.6
20260507003011 15 9 1.6 8.0 0.00 2.08 1.63 91 1006.3
20260507001510 15 351 1.6 4.8 0.03 2.08 1.63 91 1006.4
20260507000011 15 87 0.0 8.0 0.03 2.08 1.63 91 1006.3
20260506234514 15 30 1.6 9.7 0.03 2.69 1.63 91 1006.3
20260506233010 15 75 0.0 6.4 0.03 2.69 1.63 91 1006.1
20260506231508 15 147 3.2 8.0 0.03 2.69 1.63 91 1006.2
20260506230009 15 96 0.0 8.0 0.00 2.67 1.60 91 1006.3
20260506224506 15 110 1.6 6.4 0.03 3.35 1.60 90 1006.5
20260506223004 15 350 1.6 9.7 0.03 3.35 1.60 90 1006.4
20260506221502 15 97 3.2 12.9 0.03 3.35 1.60 90 1006.6
20260506220000 15 338 1.6 6.4 0.03 3.35 1.60 89 1006.5
20260506214600 15 13 1.6 12.9 0.05 3.33 1.57 88 1006.6
20260506213122 15 25 1.6 8.0 0.08 4.75 1.57 88 1006.7
20260506211558 15 125 1.6 12.9 0.08 4.75 1.57 89 1007.0
20260506204556 15 333 4.8 14.5 0.03 4.70 1.52 87 1007.5
20260506203055 16 55 1.6 8.0 0.00 5.08 1.50 86 1007.3
20260506201553 16 145 1.6 11.3 0.00 5.08 1.50 85 1007.3
20260506194552 17 163 1.6 6.4 0.00 5.08 1.50 83 1007.2
20260506193051 17 127 0.0 8.0 0.00 5.08 1.50 81 1007.2
20260506191548 17 63 1.6 9.7 0.00 5.08 1.50 78 1007.0
20260506184551 19 109 1.6 4.8 0.13 5.08 1.50 72 1007.3
20260506183054 20 233 3.2 11.3 0.18 5.08 1.50 67 1007.3
20260506181611 20 210 1.6 4.8 0.18 5.08 1.50 64 1007.4